Location: Grand Lay
(47.3253°N, 0.9468°E)
Time: 22:37:00
(UTC+00:00)

SL-08 R/B - Pass Details

Date: 18 January 2026
Orbit: 666 x 730 km, 98.5° (Epoch: 16 February)

Event Time Altitude Azimuth Distance (km) Brightness Sun altitude
Rises 06:50:50 0° 156° (SSE) 3,132 7.4 -7.8°
Reaches altitude 10° 06:53:06 10° 154° (SSE) 2,219 6.7 -7.5°
Maximum altitude 06:57:56 67° 72° (ENE) 793 3.8 -6.7°
Drops below altitude 10° 07:02:49 10° 351° (N) 2,238 5.6 -5.9°
Sets 07:05:07 0° 349° (NNW) 3,161 6.3 -5.6°
